Lid_Strength_Index
6 3 3 4 4 6 6 7 11 12 12 12 12 12 13 13 13 13 13 13 13 13 12 13 13 12 12 12 12 12 13 13 15 13 13 14 15 14 13 13 13 13 13
10 6 6 6 7 10 11 11 11 11 12 13 12 13 13 13 13 13 13 14 14 14 14 14 14 13 13 13 13 13 13 13 14 16 14 14 15 15 15 15 14 14 14
10 9 9 9 10 11 12 12 11 11 12 12 12 13 13 13 13 13 13 14 14 14 14 14 14 14 15 14 14 14 14 14 14 15 15 14 14 13 14 14 15 14 14
11 10 10 10 10 10 10 11 11 11 12 12 12 12 12 13 13 14 14 14 14 14 14 14 14 14 15 14 15 15 15 15 15 16 16 16 15 14 14 15 16 15 15
11 11 11 11 10 10 11 11 10 11 12 12 12 13 13 13 14 14 14 14 15 15 15 14 14 14 14 14 15 15 15 16 16 16 17 16 16 16 17 16 16 16 16
12 12 11 11 11 11 11 11 11 11 12 12 13 13 13 13 12 12 13 14 14 14 15 15 15 15 14 14 14 14 14 16 16 16 16 17 16 16 15 16 16 17 18
12 13 13 13 13 12 12 11 11 11 11 12 12 13 13 14 12 12 13 14 14 14 15 15 15 15 15 15 14 14 14 13 13 15 16 16 16 15 16 16 17 17 17
13 13 13 14 14 14 14 13 13 12 12 12 12 13 14 14 12 12 13 14 14 15 14 15 15 15 14 15 15 15 14 14 13 14 14 14 14 14 15 16 16 16 17
13 13 13 13 13 14 15 15 14 14 13 13 13 13 13 13 12 12 14 15 14 15 14 15 14 14 14 13 15 15 15 15 13 12 12 12 12 13 14 16 17 17 18
15 14 13 13 14 13 14 14 13 14 14 14 13 13 13 13 12 12 13 14 15 15 14 14 14 14 13 13 14 15 16 15 15 16 15 14 12 13 13 14 15 17 17
15 14 15 14 14 14 14 14 14 14 15 15 15 14 14 14 12 10 11 13 14 14 14 15 14 13 13 12 12 13 14 13 13 15 15 15 15 15 15 14 14 15 15
15 15 15 15 15 15 15 15 15 15 15 15 16 15 15 14 14 12 11 12 12 13 14 14 14 13 12 12 12 12 12 12 13 14 14 15 15 15 15 15 14 13 13
16 17 16 16 16 15 15 16 16 15 16 16 16 16 17 16 15 13 12 11 12 13 12 13 12 12 12 12 12 12 12 12 13 14 14 14 14 13 14 14 14 14 14
16 17 17 17 17 16 16 16 16 16 16 16 16 16 16 16 16 15 14 13 12 12 12 13 13 13 13 14 15 14 14 14 14 14 14 14 13 14 14 14 14 14 14
17 17 16 16 16 16 17 16 17 16 16 15 15 15 16 16 15 13 13 14 13 13 13 14 14 15 15 15 15 16 15 16 16 15 16 16 15 14 14 14 14 14 15
16 16 16 16 16 16 16 16 16 16 15 15 14 14 15 13 12 12 12 12 12 12 14 15 15 15 15 15 16 16 17 18 17 17 17 17 17 16 15 14 14 15 15
18 16 16 17 16 16 17 17 17 16 15 14 14 14 14 14 12 12 12 12 12 13 15 15 15 15 15 16 16 16 17 17 20 19 18 18 18 17 17 17 17 17 19
19 18 17 16 16 16 16 16 16 16 17 16 15 14 13 13 13 12 12 12 13 13 14 14 14 14 14 15 15 16 17 18 19 19 19 19 19 19 19 19 19 20 19
17 16 15 15 15 16 16 16 17 17 16 16 17 17 16 15 14 13 12 13 13 13 13 13 13 13 13 14 15 15 17 17 17 18 18 20 20 21 21 21 21 22 22
18 19 19 16 16 17 16 16 17 17 17 17 17 16 18 18 17 16 15 14 14 13 13 13 14 14 15 15 14 15 16 17 18 19 20 20 21 21 23 23 22 22 22
16 15 18 16 16 16 16 16 16 16 17 16 16 16 16 17 16 16 16 16 16 16 15 16 16 17 18 18 19 18 19 18 19 20 21 22 22 23 23 23 23 24 24
17 17 16 17 16 16 16 16 16 16 16 17 16 16 15 17 17 16 16 16 16 16 16 17 18 18 17 18 19 19 20 21 21 22 22 24 24 23 24 24 25 25 25
18 17 17 17 17 19 18 18 17 17 17 17 16 17 18 17 16 16 16 16 16 17 18 19 19 19 18 21 20 20 21 21 22 22 23 23 24 24 24 25 25 26 27
18 18 18 18 17 18 18 18 17 20 19 17 17 18 18 18 18 18 18 17 18 18 19 20 21 20 22 21 21 21 21 21 22 23 23 24 25 25 25 26 26 27 27
19 19 19 19 19 19 19 19 19 18 18 19 19 19 18 19 19 19 19 19 21 21 21 22 22 23 23 24 23 22 22 21 23 23 24 25 25 26 26 27 27 26 27
20 20 20 20 20 20 20 20 20 19 20 19 19 19 19 19 19 19 20 21 22 22 23 22 22 23 23 23 23 22 23 21 24 24 24 24 25 26 26 27 28 28 27